Home   Weather   Ios   Past weeks
Flag for Greece

Past Weather in Ios, Greece — Yesterday and Last 2 Weeks

Now
64 °F

Mild.


Feels Like: 64 °F
Forecast: 72 / 69 °F
Wind: 5 mph from North

Location: Paros Community Airport

Current Time: Oct 15, 2019 at 3:31:11 am

Latest Report: Oct 15, 2019 at 2:50 am


Visibility: N/A

Pressure: 30.07 "Hg

Humidity: 83%

Dew Point: 59 °F

Location of IosLocation

Past Weather in Ios — Graph

°F

Ios Temperature Yesterday

Maximum temperature yesterday: 75 °F (at 12:50 pm)
Minimum temperature yesterday: 63 °F (at 5:20 am)
Average temperature yesterday: 69 °F

High & Low Weather Summary for the Past Weeks

 TemperatureHumidityPressure
High82 °F (Oct 4, 12:50 pm)100% (Oct 1, 3:50 am)30.18 "Hg (Oct 1, 3:50 am)
Low61 °F (Oct 10, 5:20 am)44% (Oct 6, 11:50 am)29.71 "Hg (Oct 4, 1:50 pm)
Average71 °F74%29.95 "Hg
* Reported Sep 30 2:20 am — Oct 15 2:20 am, Ios. Weather by CustomWeather, © 2019

Note: Actual official high and low records may vary slightly from our data, if they occured in-between our weather recording intervals... More about our weather records

Advertising

Ios Weather History for the Previous 24 Hours

Scroll right to see more
 ConditionsComfort  
Time TempWeatherWind HumidityBarometerVisibility
2:20 am
Tue, Oct 15
64 °FMild.6 mph83%30.07 "HgN/A
1:50 am63 °FMild.3 mph83%30.07 "HgN/A
1:20 am64 °FMild.6 mph83%30.07 "HgN/A
12:50 am64 °FMild.5 mph83%30.07 "HgN/A
12:20 am66 °FMild.2 mph78%30.07 "HgN/A
11:50 pm
Mon, Oct 14
66 °FMild.5 mph78%30.09 "HgN/A
11:20 pm68 °FMild.5 mph73%30.09 "HgN/A
10:50 pm66 °FMild.3 mph73%30.09 "HgN/A
10:20 pm68 °FMild.7 mph78%30.09 "HgN/A
9:50 pm68 °FMild.7 mph73%30.09 "HgN/A
9:20 pm68 °FMild.7 mph69%30.07 "HgN/A
8:50 pm68 °FMild.8 mph73%30.09 "HgN/A
8:20 pm68 °FMild.9 mph73%30.07 "HgN/A
7:50 pm68 °FMild.9 mph73%30.07 "HgN/A
7:20 pm70 °FMild.10 mph64%30.07 "HgN/A
6:50 pm70 °FMild.12 mph69%30.07 "HgN/A
6:20 pm72 °FMild.13 mph65%30.07 "HgN/A
5:50 pm72 °FMild.13 mph65%30.07 "HgN/A
5:20 pm73 °FMild.12 mph61%30.07 "HgN/A
4:50 pm75 °FSunny.12 mph57%30.07 "Hg10 mi
3:50 pm75 °FSunny.12 mph57%30.07 "Hg10 mi
2:50 pm75 °FSunny.12 mph61%30.09 "Hg10 mi
1:50 pm75 °FPassing clouds.13 mph61%30.09 "HgN/A
12:50 pm75 °FPassing clouds.14 mph61%30.12 "HgN/A
11:50 am73 °FPassing clouds.14 mph65%30.12 "HgN/A
10:50 am73 °FPassing clouds.13 mph65%30.12 "HgN/A
9:50 am72 °FPassing clouds.13 mph69%30.12 "HgN/A
8:50 am68 °FPassing clouds.10 mph78%30.12 "HgN/A
7:50 am66 °FPassing clouds.3 mph88%30.07 "HgN/A
7:20 am63 °FPassing clouds.3 mph94%30.09 "HgN/A
6:50 am63 °FMild.No wind94%30.09 "HgN/A
6:20 am64 °FMild.6 mph83%30.09 "HgN/A
5:50 am63 °FMild.6 mph94%30.09 "HgN/A
5:20 am63 °FMild.5 mph88%30.09 "HgN/A
4:50 am64 °FMild.5 mph78%30.09 "HgN/A
4:20 am64 °FMild.3 mph83%30.09 "HgN/A
3:50 am64 °FMild.5 mph83%30.09 "HgN/A
3:20 am66 °FMild.8 mph83%30.09 "HgN/A
Weather by CustomWeather, © 2019

See weather overview